Regional Weather Roundup
Issued by NWS

Home | Current Version | Previous Version | Graphics & Text | Print | Product List | Glossary On
Versions: 1 2 3 4 5 6 7 8 9 10 11 12 13 14 15 16 17 18 19 20 21 22 23 24 25 26 27 28 29 30 31 32 33 34 35 36 37 38 39 40 41 42 43 44 45 46 47 48 49 50
000
ASUS45 KABQ 282101
RWRNM
WEATHER ROUNDUP FOR NEW MEXICO
NATIONAL WEATHER SERVICE ALBUQUERQUE NM
200 PM MST SAT FEB 28 2015

NOTE: "FAIR" MEANS FEW OR NO CLOUDS BELOW 12,000 FEET AGL WITH NO
       SIGNIFICANT WEATHER OR OBSTRUCTIONS TO VISION.

      THIS PRODUCT IS RELEASED AS TWO VERSIONS.  ONE VERSION NEAR
      THE TOP OF THE HOUR CONTAINING PRELIMINARY DATA FROM ALBUQUERQUE
      AND OTHER STATIONS.  A FINAL VERSION WITH ADDITIONAL DATA IS
      ISSUED ABOUT 10 MINUTES AFTER THE HOUR.

NMZ501-503-504-510>518-282200-
NORTHWEST PLATEAU/NORTHCENTRAL MOUNTAINS

CITY           SKY/WX    TMP DP  RH WIND       PRES   REMARKS
FARMINGTON     LGT SNOW  33  31  92 E9        29.80R FOG     WCI  25
SANTA FE       CLOUDY    30  23  75 S6        29.89S WCI  24
TAOS           CLOUDY    25  18  74 CALM      29.87F

$$
NMZ402-403-502-505>509-282200-
WESTCENTRAL MOUNTAINS/SOUTHWEST MOUNTAINS

CITY           SKY/WX    TMP DP  RH WIND       PRES   REMARKS
GALLUP         LGT RAIN  44  35  70 SW25G40   29.78S
SILVER CITY    PTSUNNY   57  32  38 W14G21    29.92F

$$
NMZ407-409-411-412-282200-
SOUTHERN DESERTS

CITY           SKY/WX    TMP DP  RH WIND       PRES   REMARKS
DEMING         PTSUNNY   63  31  30 SW8       29.87F
HOLLOMAN AFB   MOSUNNY   57  28  33 S9        29.91F
ALAMOGORDO     MOSUNNY   59  28  31 S14       29.92F
T OR C         CLOUDY    57  31  37 SE12      29.85F

$$
NMZ519>523-282200-
CENTRAL VALLEYS/CENTRAL HIGHLANDS

CITY           SKY/WX    TMP DP  RH WIND       PRES   REMARKS
ALBUQUERQUE    PTSUNNY   36  25  64 CALM      29.90F
DOUBLE EAGLE   PTSUNNY   30  23  74 E5        29.90F WCI  25
MORIARTY ARPT  CLOUDY    34  26  71 N3        29.90F
CLINES CORNERS NOT AVBL
BELEN          MOCLDY    43  32  65 E3        29.90S
SOCORRO          N/A     54  32  43 S18G28    29.86F

$$
NMZ524>526-539-540-282200-
SOUTHCENTRAL MOUNTAINS

CITY           SKY/WX    TMP DP  RH WIND       PRES   REMARKS
RUIDOSO        NOT AVBL

$$
NMZ527>531-282200-
NORTHEAST HIGHLANDS/NORTHEAST PLAINS

CITY           SKY/WX    TMP DP  RH WIND       PRES   REMARKS
LAS VEGAS      MOSUNNY   25  21  85 S16       29.86S WCI  12
RATON          MOSUNNY   19  13  77 SW7       29.86S WCI  10
CLAYTON        CLOUDY    23  17  78 S13       29.94F WCI  11

$$
NMZ532>537-282200-
EASTCENTRAL PLAINS

CITY           SKY/WX    TMP DP  RH WIND       PRES   REMARKS
TUCUMCARI      CLOUDY    26  20  77 SW16      30.00F WCI  14
CANNON AFB     CLOUDY    24  22  94 SW14      30.01F WCI  11
CLOVIS AIRPORT CLOUDY    21  19  93 S12       30.03F WCI   9

$$
NMZ028-029-538-282200-
SOUTHEAST PLAINS

CITY           SKY/WX    TMP DP  RH WIND       PRES   REMARKS
ROSWELL        CLOUDY    27  22  81 S10       30.05F WCI  17
ARTESIA        CLOUDY    28  28 100 S14       30.06F WCI  17
CARLSBAD       CLOUDY    30  24  78 S13       30.06F WCI  20
HOBBS          CLOUDY    27  27 100 SE7       30.07F WCI  19


$$



USA.gov is the U.S. government's official web portal to all federal, state and local government web resources and services.